Location: Holyhead Bay
(53.3667°N, 4.6667°W)
Time: 19:35:45
(UTC+00:00)

SKYMED 2 - Pass Details

Date: 24 November 2020
Orbit: 621 x 623 km, 97.9° (Epoch: 17 January)

Event Time Altitude Azimuth Distance (km) Brightness Sun altitude
Exits shadow 19:18:38 38° 333° (NNW) 959 4.6 -27.3°
Maximum altitude 19:19:43 47° 292° (WNW) 834 4.5 -27.5°
Drops below altitude 10° 19:23:52 10° 219° (SW) 1,994 6.6 -28.1°
Sets 19:26:06 0° 214° (SSW) 2,895 7.4 -28.4°
